• In Kazakhstan
  • List of Countries
  • For 7 days
  • Water Temperature
  • Satellite Maps
  • Weather Map
  • News
  • Weather Widgets
  • user-avatar
    Login

    Hourly Weather Odienne

    Today, 21 November, Tuesday

    Time Temperature Precipitation Wind Pressure Humidity
    00:00 +25°C° 0.1 mm 1 mps 722 mmHg 83%
    01:00 +25°C° 0.1 mm 1 mps 722 mmHg 84%
    02:00 +25°C° 0.1 mm 1 mps 722 mmHg 84%
    03:00 +25°C° 0.3 mm 1 mps 722 mmHg 85%
    04:00 +23°C° 0.3 mm 0 mps 722 mmHg 85%
    05:00 +23°C° 0.3 mm 0 mps 722 mmHg 86%
    06:00 +24°C° 0.2 mm 0 mps 723 mmHg 79%
    07:00 +26°C° 0.2 mm 0 mps 723 mmHg 72%
    08:00 +28°C° 0.2 mm 0 mps 724 mmHg 64%
    09:00 +32°C° 0 mm 1 mps 724 mmHg 56%
    10:00 +34°C° 0 mm 1 mps 724 mmHg 48%
    11:00 +36°C° 0 mm 1 mps 723 mmHg 40%
    12:00 +36°C° 0 mm 1 mps 723 mmHg 39%
    13:00 +35°C° 0 mm 1 mps 722 mmHg 39%
    14:00 +36°C° 0 mm 2 mps 721 mmHg 38%
    15:00 +34°C° 0 mm 1 mps 721 mmHg 41%
    16:00 +33°C° 0 mm 1 mps 721 mmHg 44%
    17:00 +32°C° 0 mm 1 mps 721 mmHg 48%
    18:00 +31°C° 0 mm 1 mps 721 mmHg 49%
    19:00 +30°C° 0 mm 1 mps 722 mmHg 50%
    20:00 +30°C° 0 mm 1 mps 723 mmHg 51%
    21:00 +29°C° 0.3 mm 1 mps 723 mmHg 55%
    22:00 +28°C° 0.3 mm 1 mps 723 mmHg 60%
    23:00 +27°C° 0.3 mm 1 mps 723 mmHg 64%

    Tomorrow, 22 November, Wednesday

    Time Temperature Precipitation Wind Pressure Humidity
    00:00 +27°C° 0.5 mm 1 mps 722 mmHg 68%
    01:00 +26°C° 0.5 mm 1 mps 722 mmHg 72%
    02:00 +26°C° 0.5 mm 1 mps 721 mmHg 76%
    03:00 +26°C° 0 mm 1 mps 722 mmHg 77%
    04:00 +26°C° 0 mm 1 mps 722 mmHg 79%
    05:00 +25°C° 0 mm 1 mps 722 mmHg 80%
    06:00 +26°C° 0 mm 1 mps 722 mmHg 76%
    07:00 +27°C° 0 mm 1 mps 723 mmHg 72%
    08:00 +29°C° 0 mm 1 mps 723 mmHg 69%
    09:00 +31°C° 0 mm 1 mps 723 mmHg 60%
    10:00 +33°C° 0 mm 1 mps 723 mmHg 51%
    11:00 +36°C° 0 mm 1 mps 723 mmHg 42%
    12:00 +36°C° 0 mm 1 mps 722 mmHg 39%
    13:00 +36°C° 0 mm 1 mps 721 mmHg 36%
    14:00 +38°C° 0 mm 2 mps 720 mmHg 33%
    15:00 +35°C° 0 mm 1 mps 720 mmHg 36%
    16:00 +34°C° 0 mm 1 mps 720 mmHg 40%
    17:00 +30°C° 0 mm 0 mps 720 mmHg 43%
    18:00 +29°C° 0 mm 0 mps 720 mmHg 45%
    19:00 +29°C° 0 mm 0 mps 721 mmHg 46%
    20:00 +28°C° 0 mm 0 mps 722 mmHg 47%
    21:00 +29°C° 0 mm 1 mps 722 mmHg 50%
    22:00 +28°C° 0 mm 1 mps 722 mmHg 53%
    23:00 +28°C° 0 mm 1 mps 722 mmHg 55%

    Day after tomorrow, 23 November, Thursday

    Time Temperature Precipitation Wind Pressure Humidity
    00:00 +27°C° 0 mm 1 mps 721 mmHg 61%
    01:00 +27°C° 0 mm 1 mps 721 mmHg 67%
    02:00 +26°C° 0 mm 2 mps 721 mmHg 73%
    03:00 +26°C° 0 mm 2 mps 721 mmHg 75%
    04:00 +26°C° 0 mm 2 mps 721 mmHg 77%
    05:00 +25°C° 0 mm 2 mps 722 mmHg 79%
    06:00 +26°C° 0 mm 2 mps 722 mmHg 76%
    07:00 +27°C° 0 mm 2 mps 723 mmHg 73%
    08:00 +28°C° 0 mm 2 mps 723 mmHg 70%
    09:00 +30°C° 0 mm 2 mps 723 mmHg 62%
    10:00 +32°C° 0 mm 2 mps 723 mmHg 55%
    11:00 +35°C° 0 mm 2 mps 723 mmHg 47%
    12:00 +35°C° 0 mm 1 mps 722 mmHg 41%
    13:00 +36°C° 0 mm 1 mps 722 mmHg 36%
    14:00 +37°C° 0 mm 1 mps 721 mmHg 30%
    15:00 +35°C° 0 mm 1 mps 721 mmHg 34%
    16:00 +34°C° 0 mm 1 mps 721 mmHg 38%
    17:00 +32°C° 0 mm 1 mps 721 mmHg 42%
    18:00 +31°C° 0 mm 1 mps 721 mmHg 46%
    19:00 +30°C° 0 mm 1 mps 722 mmHg 49%
    20:00 +29°C° 0 mm 1 mps 723 mmHg 53%
    21:00 +28°C° 0 mm 1 mps 723 mmHg 56%
    22:00 +28°C° 0 mm 1 mps 723 mmHg 60%
    23:00 +27°C° 0 mm 1 mps 723 mmHg 64%

    24 November, Friday

    Time Temperature Precipitation Wind Pressure Humidity
    00:00 +27°C° 0.2 mm 1 mps 722 mmHg 68%
    01:00 +26°C° 0.2 mm 1 mps 722 mmHg 73%
    02:00 +26°C° 0.2 mm 2 mps 722 mmHg 77%
    03:00 +25°C° 0 mm 1 mps 722 mmHg 79%
    04:00 +25°C° 0 mm 1 mps 722 mmHg 81%
    05:00 +25°C° 0 mm 1 mps 722 mmHg 83%
    06:00 +26°C° 0 mm 1 mps 723 mmHg 78%
    07:00 +28°C° 0 mm 2 mps 723 mmHg 72%
    08:00 +29°C° 0 mm 2 mps 724 mmHg 66%
    09:00 +32°C° 0 mm 1 mps 724 mmHg 57%
    10:00 +34°C° 0 mm 1 mps 724 mmHg 49%
    11:00 +37°C° 0 mm 1 mps 723 mmHg 40%
    12:00 +37°C° 0 mm 1 mps 723 mmHg 38%
    13:00 +37°C° 0 mm 1 mps 722 mmHg 35%
    14:00 +35°C° 0 mm 0 mps 721 mmHg 33%
    15:00 +33°C° 0 mm 0 mps 721 mmHg 36%
    16:00 +32°C° 0 mm 0 mps 721 mmHg 40%
    17:00 +30°C° 0 mm 0 mps 721 mmHg 43%
    18:00 +31°C° 0 mm 1 mps 722 mmHg 44%
    19:00 +31°C° 0 mm 1 mps 722 mmHg 46%
    20:00 +30°C° 0 mm 1 mps 723 mmHg 47%
    21:00 +30°C° 0 mm 1 mps 723 mmHg 50%
    22:00 +29°C° 0 mm 1 mps 722 mmHg 53%
    23:00 +28°C° 0 mm 1 mps 722 mmHg 57%

    25 November, Saturday

    Time Temperature Precipitation Wind Pressure Humidity
    00:00 +27°C° 0.1 mm 1 mps 722 mmHg 63%
    01:00 +26°C° 0.1 mm 1 mps 722 mmHg 68%
    02:00 +25°C° 0.1 mm 1 mps 721 mmHg 74%
    03:00 +25°C° 0 mm 1 mps 722 mmHg 76%
    04:00 +25°C° 0 mm 1 mps 722 mmHg 78%
    05:00 +25°C° 0 mm 1 mps 722 mmHg 81%
    06:00 +26°C° 0 mm 1 mps 723 mmHg 74%
    07:00 +28°C° 0 mm 1 mps 723 mmHg 67%
    08:00 +30°C° 0 mm 1 mps 724 mmHg 60%
    09:00 +32°C° 0 mm 1 mps 724 mmHg 52%
    10:00 +34°C° 0 mm 1 mps 724 mmHg 44%
    11:00 +36°C° 0 mm 1 mps 723 mmHg 37%
    12:00 +37°C° 0 mm 1 mps 723 mmHg 33%
    13:00 +37°C° 0 mm 1 mps 722 mmHg 29%
    14:00 +39°C° 0 mm 1 mps 721 mmHg 25%
    15:00 +36°C° 0 mm 1 mps 721 mmHg 28%
    16:00 +34°C° 0 mm 1 mps 721 mmHg 32%
    17:00 +32°C° 0 mm 1 mps 721 mmHg 35%
    18:00 +31°C° 0 mm 1 mps 721 mmHg 37%
    19:00 +31°C° 0 mm 1 mps 722 mmHg 39%
    20:00 +30°C° 0 mm 1 mps 723 mmHg 40%
    21:00 +30°C° 0 mm 1 mps 723 mmHg 43%
    22:00 +29°C° 0 mm 1 mps 722 mmHg 46%
    23:00 +29°C° 0 mm 1 mps 722 mmHg 49%

    26 November, Sunday

    Time Temperature Precipitation Wind Pressure Humidity
    00:00 +28°C° 0 mm 1 mps 722 mmHg 53%
    01:00 +27°C° 0 mm 1 mps 722 mmHg 56%
    02:00 +27°C° 0 mm 1 mps 721 mmHg 60%
    03:00 +26°C° 0 mm 1 mps 722 mmHg 63%
    04:00 +26°C° 0 mm 1 mps 722 mmHg 66%
    05:00 +25°C° 0 mm 1 mps 722 mmHg 69%
    06:00 +27°C° 0 mm 1 mps 723 mmHg 64%
    07:00 +29°C° 0 mm 1 mps 724 mmHg 59%
    08:00 +31°C° 0 mm 1 mps 724 mmHg 54%
    09:00 +33°C° 0 mm 1 mps 724 mmHg 47%
    10:00 +36°C° 0 mm 1 mps 724 mmHg 40%
    11:00 +39°C° 0 mm 1 mps 724 mmHg 33%
    12:00 +39°C° 0 mm 1 mps 723 mmHg 31%
    13:00 +37°C° 0 mm 1 mps 722 mmHg 29%
    14:00 +38°C° 0 mm 2 mps 721 mmHg 26%
    15:00 +36°C° 0 mm 2 mps 721 mmHg 30%
    16:00 +34°C° 0 mm 1 mps 721 mmHg 34%
    17:00 +32°C° 0 mm 1 mps 721 mmHg 37%
    18:00 +32°C° 0 mm 1 mps 722 mmHg 39%
    19:00 +31°C° 0 mm 1 mps 722 mmHg 40%
    20:00 +30°C° 0 mm 1 mps 723 mmHg 41%
    21:00 +30°C° 0 mm 1 mps 723 mmHg 46%
    22:00 +29°C° 0 mm 1 mps 723 mmHg 50%
    23:00 +28°C° 0 mm 1 mps 723 mmHg 55%
    Show more